Powrót do katalogu

STARLINK-5790

AktywnyŁącznośćVLEO
NORAD 56036·PAYLOAD·🇺🇸 United States

Wystrzelony Mar 24, 2023 z Cape Canaveral Space Force Station

Loading…

Następne Przeloty (najbliższe 24 godziny)

TLE

ŚwieżeSource: CelesTrak SupGP

Epoka: Sep 14, 2026, 21:33 UTC

1 56036C 23042BC  26257.89840278  .00059406  00000+0  21518-2 0  2578
2 56036  43.0027  56.7823 0002041 280.3940 344.6778 15.27546275    16

Śledź STARLINK-5790 w czasie rzeczywistym z AllMySat

Download on the App Store